Вернуться в каталог

THORAD AGENA D DEB

АктивенSSO
NORAD 4643·DEBRIS·🇺🇸 United States

Запущен Apr 8, 1970 с Vandenberg Space Force Base

Loading…

Ближайшие Пролёты (ближайшие 24 часа)

TLE

СвежийSource: Space-Track

Эпоха: Sep 14, 2026, 10:04 UTC

1 04643U 70025AB  26257.41994394  .00000085  00000-0  18279-3 0  9999
2 04643  99.3805 101.4120 0011069 358.8685 120.5156 13.55268793783896

Отслеживайте THORAD AGENA D DEB в реальном времени с AllMySat

Download on the App Store